Theta_e
316 318 320 317 317 313 310 312 312 311 311 310 310 312 309 309 312 318 324 328 328 324 321 324 326 329 331 331 331 331 332 331 332 333 333 332 328 329 330 329 328 327 329 327
317 320 318 316 316 314 314 311 312 310 310 311 309 311 309 307 309 312 319 323 325 324 324 324 326 328 329 330 331 332 332 332 332 332 331 331 327 329 329 329 328 328 327 326
319 319 317 317 315 315 316 312 312 313 310 310 309 310 310 308 308 310 311 313 315 317 320 321 326 328 329 330 331 331 331 331 331 331 331 333 331 328 327 327 327 326 325 325
318 317 316 317 316 316 317 313 310 310 312 314 308 312 307 308 308 307 310 311 311 312 313 317 322 327 328 328 328 329 329 330 330 330 331 331 330 325 327 326 325 325 325 324
316 318 317 317 316 314 316 309 310 310 310 309 307 307 307 305 309 307 308 311 312 312 312 314 317 321 324 327 328 329 329 329 330 330 330 331 330 329 325 325 324 324 323 323
311 313 315 316 313 314 310 311 310 310 308 310 310 307 308 304 307 309 309 312 313 312 312 312 315 318 321 326 328 329 329 329 330 330 331 331 329 327 325 324 323 323 322 322
311 313 310 313 314 313 311 312 315 315 313 312 305 305 314 305 304 306 310 311 313 312 313 312 314 314 316 320 324 326 327 327 329 330 331 331 329 327 326 325 323 322 321 321
314 314 312 311 315 314 312 313 313 315 314 312 304 306 308 304 306 307 308 309 311 311 312 312 312 313 314 315 315 315 318 323 327 329 330 331 327 327 326 325 323 322 321 320
311 313 310 309 311 313 313 314 311 307 298 306 306 305 305 304 305 308 308 308 308 311 312 312 312 312 312 312 312 311 311 311 311 320 329 330 326 326 326 325 323 321 320 319
308 309 309 307 311 311 311 311 310 308 310 306 304 304 309 307 306 306 306 308 308 310 311 311 312 312 312 312 311 311 310 310 310 313 326 327 325 326 324 323 321 319 319 317
307 309 310 308 310 313 311 310 308 309 308 309 306 306 302 306 306 305 307 309 309 310 311 312 312 312 312 313 313 311 310 311 311 318 325 328 324 323 324 318 320 319 313 308
307 309 309 310 308 307 309 311 309 312 308 305 307 307 304 302 303 306 307 309 309 310 311 311 311 311 313 314 313 312 314 315 318 323 327 325 325 324 322 318 313 309 304 303
308 308 309 313 311 307 309 307 306 306 306 309 309 308 303 304 304 305 308 310 310 311 311 311 311 312 313 314 313 314 315 317 320 324 324 324 325 324 314 310 306 303 302 302
309 309 310 314 313 311 308 306 305 307 308 308 307 308 306 305 305 304 306 309 311 311 311 311 311 311 312 314 314 313 314 317 320 321 322 321 320 311 308 304 303 302 301 299
309 308 309 309 309 310 308 309 306 307 308 308 308 307 307 306 305 305 306 308 310 311 311 311 310 310 311 312 314 314 314 315 316 317 317 313 309 306 303 302 301 301 299 297
306 306 309 306 308 308 311 309 309 308 308 307 306 305 305 305 306 307 307 308 310 310 310 310 310 310 310 311 312 312 313 314 313 311 309 308 305 303 302 301 300 298 296 295
306 305 305 309 307 308 309 309 308 309 307 309 305 308 304 305 305 308 308 308 309 310 310 310 310 310 310 309 310 309 309 309 309 308 306 304 302 301 301 300 298 296 295 294
308 307 305 309 307 312 310 306 307 308 308 308 305 305 304 307 310 310 310 310 309 309 310 310 310 310 310 309 309 309 308 308 307 304 303 302 301 300 299 298 296 295 294 294
307 308 309 310 308 308 307 306 305 306 308 306 306 307 305 306 307 308 310 310 311 311 311 311 310 310 310 309 309 309 308 306 303 302 301 300 300 299 298 296 295 294 293 293
309 308 310 305 311 310 307 306 306 306 308 306 306 306 304 306 306 308 310 310 311 311 311 311 310 310 310 309 309 308 307 305 302 301 300 299 299 298 296 295 294 293 292 292
309 310 311 309 303 305 304 305 306 308 308 305 307 307 304 305 308 309 310 310 310 310 311 311 310 310 310 310 309 308 307 305 303 301 298 298 297 296 294 293 292 292 292 292
312 312 311 308 301 309 305 304 307 306 306 307 307 307 307 308 308 308 309 309 310 310 310 310 310 310 310 309 309 308 307 305 302 299 297 297 296 295 293 292 291 291 291 291
309 309 310 310 307 305 304 305 304 305 306 307 309 308 307 307 308 308 309 309 309 309 309 309 309 310 309 309 308 308 307 304 301 297 296 296 295 293 292 291 290 290 291 290
301 299 306 306 299 302 304 304 304 304 305 306 307 308 308 309 309 310 310 311 311 311 309 309 309 309 309 308 307 306 306 303 299 297 295 295 294 292 290 290 290 290 293 294
300 300 298 299 297 301 302 303 304 304 304 305 307 308 308 308 309 309 310 310 310 310 309 307 307 307 307 307 306 305 304 301 298 296 295 294 292 290 290 289 293 296 294 289
300 302 305 303 303 304 305 304 305 305 305 305 305 306 306 306 307 307 307 308 308 307 307 306 305 305 305 304 304 304 302 300 298 295 294 293 291 289 291 297 296 294 289 288
Wind_Speed
8 5 14 19 19 8 1 4 6 4 4 5 8 8 8 17 20 24 31 34 33 32 30 32 33 35 33 31 29 28 28 24 23 23 24 24 25 24 23 20 19 18 16 13
6 18 13 13 15 8 2 2 5 2 1 2 5 13 4 10 17 30 33 34 34 33 32 31 32 32 33 32 33 32 31 29 26 25 24 24 21 25 24 24 24 23 19 17
9 3 17 16 14 11 9 5 6 7 4 3 3 7 5 6 15 19 29 32 35 35 35 34 34 36 35 36 36 35 32 31 29 26 24 25 22 22 24 24 23 20 16 15
4 10 21 19 16 14 16 7 9 3 6 8 4 6 7 8 9 11 29 30 33 33 34 34 35 36 37 36 34 33 31 31 29 26 26 27 27 23 23 20 18 17 17 18
3 15 21 22 24 19 6 3 1 3 4 4 4 1 6 2 15 9 22 32 32 32 34 35 35 36 34 36 37 36 34 33 31 28 27 25 24 18 16 19 18 17 17 17
3 3 10 12 16 21 5 9 5 3 4 6 10 8 6 7 8 12 22 37 36 32 34 34 33 35 36 36 36 37 37 36 35 33 30 27 24 20 20 18 15 17 16 14
2 3 3 14 12 13 6 8 2 1 3 12 2 5 14 5 8 9 19 38 41 34 31 35 37 37 37 36 35 35 36 37 36 35 34 30 26 23 21 19 18 17 16 14
8 5 12 12 13 12 18 12 5 8 9 13 1 8 7 7 9 12 14 20 36 34 33 36 37 36 35 34 34 35 36 37 36 35 33 31 28 26 24 22 20 18 17 15
6 4 13 14 8 16 15 13 8 3 3 2 4 7 10 4 6 8 13 17 30 41 38 36 35 35 34 33 33 34 35 36 36 35 34 32 29 28 26 24 20 19 19 17
7 5 3 4 15 14 6 10 7 2 4 4 4 5 7 6 10 7 9 25 31 40 38 35 34 32 31 30 28 27 29 30 32 32 33 32 30 28 26 22 21 21 19 16
3 4 3 7 10 19 9 11 8 4 4 5 2 6 9 12 13 13 20 30 34 41 38 34 30 28 27 26 25 24 24 24 26 28 32 34 32 28 27 24 22 21 19 18
7 2 4 5 2 5 9 16 12 11 9 1 3 6 2 7 5 7 10 24 27 33 31 28 27 26 25 25 25 24 24 24 26 29 34 34 35 31 23 23 22 22 20 17
8 3 4 2 1 4 5 6 6 3 3 11 6 6 1 5 5 10 17 21 25 29 28 26 26 25 25 25 27 27 26 28 29 31 33 33 31 28 27 26 25 23 19 15
12 4 7 12 10 7 6 6 6 9 8 5 7 4 8 6 8 8 16 25 31 30 28 28 27 29 28 26 25 27 30 31 31 32 33 31 30 30 29 28 25 21 17 14
12 7 4 6 6 13 8 7 7 8 14 8 7 7 8 9 8 10 16 22 28 31 33 33 33 31 28 27 28 28 29 31 32 32 32 33 32 31 30 27 24 20 17 14
2 1 6 4 2 9 15 15 11 16 15 12 5 10 7 2 5 9 19 26 33 37 38 37 34 32 33 33 32 32 33 33 33 34 35 35 34 32 29 26 23 19 16 13
5 6 4 8 3 6 2 17 16 15 13 17 11 18 4 6 9 20 24 29 37 40 39 38 37 37 37 37 37 37 36 35 36 36 36 35 33 31 28 24 21 18 15 13
6 5 3 4 3 2 9 7 17 21 19 20 4 6 10 15 23 24 25 27 30 33 34 37 39 40 40 39 39 37 37 38 39 38 37 36 34 31 27 23 20 18 16 14
3 6 3 4 3 7 10 5 7 8 16 16 16 21 17 14 9 17 24 27 27 26 28 33 37 41 42 42 41 41 42 42 41 40 38 37 34 31 27 23 20 19 17 14
5 4 5 3 6 12 3 9 11 5 13 8 18 15 9 12 4 14 25 21 22 26 30 32 36 39 43 43 45 45 45 45 44 42 40 37 34 29 26 23 21 19 16 14
4 3 5 4 5 7 8 5 13 9 7 5 23 26 20 9 25 25 21 26 28 28 29 32 34 37 40 45 47 48 48 49 45 42 40 38 34 30 26 23 21 19 17 16
13 8 4 3 3 11 6 5 8 2 3 2 3 14 20 26 21 23 17 10 14 18 22 27 34 36 39 42 47 50 51 49 45 45 42 38 34 30 27 24 22 20 17 16
4 8 8 10 6 6 12 6 5 2 2 2 3 1 7 13 13 15 14 13 13 15 18 23 27 33 37 39 43 51 52 50 49 47 43 39 34 31 27 25 22 19 16 15
2 2 4 4 3 3 7 12 3 2 2 3 2 1 3 5 5 7 9 10 13 16 18 22 27 32 36 37 40 47 51 51 50 48 44 39 34 30 27 23 19 15 15 18
2 7 5 3 3 2 1 7 10 5 2 2 3 5 6 7 9 11 13 14 15 18 19 21 26 31 34 36 40 46 50 50 50 46 42 38 33 29 25 20 14 13 19 21
4 4 4 3 6 3 3 4 3 3 4 1 2 1 4 6 7 9 11 13 15 16 17 20 24 29 32 33 37 42 45 48 48 46 41 36 31 25 20 16 12 18 23 21
Wind_Direction
160 153 193 185 189 103 48 233 196 222 211 145 211 228 226 202 204 208 211 210 210 209 213 214 214 218 221 223 222 221 224 224 222 221 222 222 229 228 231 233 235 242 247 251
146 216 187 164 182 183 187 329 217 302 112 152 211 237 247 185 217 214 210 214 217 217 216 214 213 212 215 220 224 225 228 229 228 228 232 239 239 233 236 240 242 247 252 254
180 185 174 169 180 176 214 223 229 234 155 94 119 279 229 233 230 232 226 226 223 221 222 217 217 218 219 223 226 228 229 231 231 234 233 235 236 233 231 233 237 242 246 252
208 160 163 183 186 183 201 219 257 181 170 217 176 256 238 217 230 219 231 227 231 225 227 223 219 221 222 223 224 227 230 230 230 233 233 236 240 244 231 234 240 240 246 250
121 168 174 178 187 178 211 35 234 247 233 161 224 206 261 139 228 235 235 228 228 225 220 219 218 221 221 222 224 226 227 227 228 230 231 234 238 244 238 234 234 238 240 244
37 172 196 189 183 185 96 69 34 41 348 235 213 183 237 199 199 228 232 232 229 223 217 219 218 220 220 219 221 224 225 226 227 227 230 230 236 234 231 233 232 230 234 235
109 178 319 154 167 209 87 120 132 202 217 239 278 195 233 202 220 210 221 225 223 219 216 212 213 216 217 218 221 224 228 229 229 227 226 226 231 232 236 236 234 231 228 231
165 202 189 190 200 173 189 174 183 176 197 215 55 234 238 222 220 229 238 246 228 211 211 210 211 213 215 218 223 227 230 230 228 225 221 217 226 230 229 234 232 226 224 223
149 243 163 192 167 163 186 208 221 76 41 95 211 278 300 237 252 235 232 224 219 208 208 208 207 212 217 224 232 236 234 231 227 222 215 211 218 225 227 227 229 222 220 218
207 117 182 142 157 221 183 181 202 214 163 218 256 266 228 227 249 236 226 215 213 206 207 208 209 216 223 229 231 228 224 223 220 215 209 207 212 216 216 219 217 210 210 207
279 116 256 166 199 176 185 209 213 213 165 185 183 256 207 209 209 203 224 219 206 203 204 208 212 216 220 221 218 215 209 208 210 206 205 205 203 205 223 215 199 201 192 184
218 104 148 181 24 114 199 224 213 216 212 244 168 269 219 256 279 235 213 213 209 205 202 207 211 211 210 211 208 205 201 202 203 199 199 203 206 211 224 190 184 180 182 183
186 211 104 96 38 118 182 219 214 157 94 213 195 251 304 274 260 236 212 212 204 201 200 202 207 209 210 208 206 202 199 201 202 197 197 200 207 212 188 180 179 179 182 189
154 142 163 200 214 125 184 203 199 206 211 206 233 198 284 259 240 234 218 213 201 201 203 205 208 210 208 205 201 200 202 202 202 200 204 207 197 184 178 179 180 182 185 195
188 179 138 215 210 180 202 200 197 204 230 207 213 210 248 260 230 223 221 206 203 204 207 208 208 207 205 203 200 197 196 196 197 194 191 185 180 179 179 181 184 186 192 199
294 190 173 295 323 193 208 228 231 220 230 243 202 240 227 288 232 194 207 203 206 211 212 211 211 208 207 205 201 196 193 190 188 186 184 183 182 181 183 186 189 192 197 198
122 124 123 227 9 108 311 215 216 226 220 228 209 231 177 214 211 221 211 212 215 216 215 215 215 214 211 207 204 200 194 191 190 189 188 187 185 186 188 190 194 198 200 203
131 99 99 157 71 193 243 206 223 219 229 225 245 225 195 216 235 242 232 227 226 223 223 224 222 219 216 212 207 204 199 197 195 192 192 191 190 191 192 195 198 202 205 209
66 151 231 135 194 288 269 215 162 170 250 220 212 235 227 226 245 254 243 241 240 238 238 234 230 224 219 215 210 206 203 201 198 196 197 196 195 195 197 200 203 205 208 216
78 67 162 139 194 230 114 211 184 115 263 201 204 227 198 160 211 249 241 245 247 247 244 242 236 229 225 220 215 210 207 205 203 201 200 200 199 200 202 202 204 209 215 226
154 76 180 176 232 285 244 233 169 170 253 260 200 215 186 186 218 244 248 244 251 254 251 245 239 236 231 223 218 213 212 210 207 204 202 202 202 202 203 207 208 211 220 232
178 169 177 155 201 252 203 95 175 241 79 335 67 222 222 234 235 240 248 250 256 258 260 253 242 238 233 229 220 216 215 213 208 205 204 204 204 206 207 209 212 217 226 239
152 189 194 191 193 221 196 183 222 6 148 165 127 128 250 254 260 266 269 272 273 269 265 257 248 242 238 233 224 220 217 213 206 204 205 205 206 208 209 211 215 222 234 248
270 171 190 109 266 211 207 218 266 231 154 158 198 224 296 295 298 296 297 291 289 284 268 252 245 241 239 233 225 222 219 210 207 205 204 205 207 210 210 213 220 232 259 268
187 135 155 303 290 90 173 224 227 223 211 234 243 266 278 283 287 288 290 287 278 274 271 253 243 240 237 228 221 220 215 209 205 204 204 205 207 209 211 213 232 259 264 256
185 169 172 221 177 118 131 86 119 212 246 303 28 350 330 318 303 292 290 287 283 280 275 260 248 242 237 228 222 218 211 209 207 204 204 205 207 206 209 230 254 257 252 257